This is the latest recevied weather packets stored in our database for station/object SQ2WB-13. If no packets are shown the sender has not sent any weather packets the latest 10 day(s).
| Time | Temp. | Humidity | Pressure | Rain* | Wind** | Luminosity | Snow |
|---|---|---|---|---|---|---|---|
| 1787778001 | 13.89° C | 92% | 1014.5 hPa | 0 mm | - | - | - |
| 1787777100 | 13.89° C | 91% | 1014.5 hPa | 0 mm | - | - | - |
| 1787776202 | 15° C | 88% | 1014.5 hPa | 0 mm | - | - | - |
| 1787775302 | 15° C | 87% | 1014.5 hPa | 0 mm | - | - | - |
| 1787774402 | 15° C | 86% | 1014.5 hPa | 0 mm | - | - | - |
| 1787773502 | 15° C | 84% | 1014.5 hPa | 0 mm | - | - | - |
| 1787772601 | 15° C | 83% | 1014.5 hPa | 0 mm | - | - | - |
| 1787771702 | 15.56° C | 80% | 1014.5 hPa | 0 mm | - | - | - |
| 1787770802 | 15.56° C | 79% | 1014.2 hPa | 0 mm | - | - | - |
| 1787769902 | 15.56° C | 78% | 1014.2 hPa | 0 mm | - | - | - |
| 1787769002 | 16.67° C | 77% | 1014.2 hPa | 0 mm | - | - | - |
| 1787768101 | 16.67° C | 75% | 1014.2 hPa | 0 mm | - | - | - |
| 1787767201 | 17.78° C | 75% | 1014.2 hPa | 0 mm | - | - | - |
| 1787766302 | 17.78° C | 74% | 1014.2 hPa | 0 mm | - | - | - |
| 1787765402 | 18.89° C | 72% | 1014.2 hPa | 0 mm | - | - | - |
| 1787764501 | 18.89° C | 70% | 1014.2 hPa | 0 mm | - | - | - |
| 1787763601 | 20° C | 65% | 1013.8 hPa | 0 mm | - | - | - |
| 1787762702 | 20.56° C | 63% | 1013.8 hPa | 0 mm | - | - | - |
| 1787761801 | 20.56° C | 61% | 1013.8 hPa | 0 mm | - | - | - |
| 1787760901 | 21.67° C | 59% | 1013.8 hPa | 0 mm | - | - | - |
| 1787760001 | 21.67° C | 60% | 1013.8 hPa | 0 mm | - | - | - |
| 1787759102 | 22.78° C | 54% | 1013.8 hPa | 0 mm | - | - | - |
| 1787758201 | 22.78° C | 54% | 1013.8 hPa | 0 mm | - | - | - |
| 1787757301 | 22.78° C | 51% | 1013.8 hPa | 0 mm | - | - | - |
| 1787756402 | 23.89° C | 49% | 1013.8 hPa | 0 mm | - | - | - |
* Rain latest hour (hover to see other rain measurements)
** Current wind speed in m/s (hover to see current wind gust speed)